Marion, OH

8:54 AM EDT on September 18, 2019 (GMT -0400)
Marion Municipal

Weather History for KMNN - August, 2019

Change the Weather History Date:

Wednesday, August 21, 2019

  Actual Average (WUND) Record (WUND)
Temperature  
Mean Temperature 78 °F -  
Max Temperature 82 °F - - (-1)
Min Temperature 71 °F - - (-1)
Cooling Degree Days 12    
Growing Degree Days 28 (Base 50)    
Moisture  
Dew Point 67 °F    
Average Humidity 71    
Maximum Humidity 87    
Minimum Humidity 60    
Precipitation  
Precipitation 0.00 in - - ()
Sea Level Pressure  
Sea Level Pressure 29.97 in    
Wind  
Wind Speed 7 mph (WSW)    
Max Wind Speed 9 mph    
Max Gust Speed -    
Visibility 10 miles    
Events      
Averages and records for this station are not official NWS values.
T = Trace of Precipitation, MM = Missing Value Source: NWS Daily Summary

Daily Weather History Graph

Daily Weather History Graph

Search for Another Location

Airport or City:

Astronomy

Aug. 21, 2019 Rise Set
Actual Time 6:48 AM EDT 8:21 PM EDT
Civil Twilight 6:19 AM EDT 8:50 PM EDT
Nautical Twilight 5:44 AM EDT 9:25 PM EDT
Astronomical Twilight 5:07 AM EDT 10:01 PM EDT
Moon 11:37 PM EDT (8/21) 12:24 PM EDT (8/21)
Length of Visible Light 14h 30m
Length of Day
13h 33m
Waning Gibbous, 69% of the Moon is Illuminated
Aug 21
Waning Gibbous
Aug 23
Last Quarter
Aug 30
New
Sep 5
First Quarter
Sep 14
Full

Hourly Weather History & Observations

Time (EDT) Temp. Heat Index Dew Point Humidity Pressure Visibility Wind Dir Wind Speed Gust Speed Precip Events Conditions
12:53 AM - - - N/A% 29.99 in - North - - N/A   Unknown
1:53 AM - - - N/A% 29.98 in - North - - N/A   Unknown
2:53 AM - - - N/A% 29.98 in - North - - N/A   Unknown
3:53 AM - - - N/A% 29.97 in - North - - N/A   Unknown
4:53 AM - - - N/A% 29.95 in - North - - N/A   Unknown
5:53 AM - - - N/A% 29.96 in - North - - N/A   Unknown
6:53 AM - - - N/A% 29.96 in - North - - N/A   Unknown
7:53 AM - - - N/A% 29.97 in - North - - N/A   Unknown
8:53 AM - - - N/A% 29.97 in - North - - N/A   Unknown
9:53 AM - - - N/A% 29.97 in - North - - N/A   Unknown
10:53 AM - - - N/A% 29.99 in - North - - N/A   Unknown
11:53 AM 77.0 °F - 66.9 °F 71% 29.98 in 10.0 mi WSW 8.1 mph - N/A   Unknown
12:32 PM 75.9 °F - 66.0 °F 71% 29.98 in 10.0 mi WSW 4.6 mph - N/A   Overcast
12:42 PM 77.0 °F - 66.9 °F 71% 29.99 in 10.0 mi WSW 5.8 mph - N/A   Overcast
12:53 PM 77.0 °F - 66.9 °F 71% 29.99 in 10.0 mi WSW 4.6 mph - N/A   Overcast
1:53 PM 79.0 °F - 66.0 °F 64% 29.98 in 10.0 mi WSW 4.6 mph - N/A   Overcast
2:53 PM 79.0 °F - 66.9 °F 66% 29.98 in 10.0 mi WSW 8.1 mph - N/A   Mostly Cloudy
3:53 PM 82.0 °F 84.5 °F 66.9 °F 60% 29.97 in 10.0 mi West 8.1 mph - N/A   Scattered Clouds
5:53 PM 81.0 °F 83.3 °F 66.9 °F 62% 29.97 in 10.0 mi West 9.2 mph - N/A   Mostly Cloudy
6:53 PM 81.0 °F 83.3 °F 66.9 °F 62% 29.96 in 10.0 mi West 8.1 mph - N/A   Clear
7:53 PM 78.1 °F - 66.9 °F 68% 29.94 in 10.0 mi West 8.1 mph - N/A   Clear
8:53 PM 75.0 °F - 68.0 °F 79% 29.95 in 10.0 mi West 4.6 mph - N/A   Clear
9:53 PM 73.9 °F - 66.9 °F 79% 29.96 in 10.0 mi SW 6.9 mph - N/A   Clear
10:53 PM 73.0 °F - 66.9 °F 81% 29.97 in 10.0 mi WSW 5.8 mph - N/A   Clear
11:53 PM 71.1 °F - 66.9 °F 87% 29.97 in 10.0 mi SW 5.8 mph - N/A   Clear